Home > Weather > Napa > Past weeks

Flag for USA Past Weather in Napa, California, USA — Yesterday and Last 2 Weeks

Now
67 °F

Sunny.


Feels Like: 67 °F
Forecast: 55 / 78 °F
Wind: 16 mph from South

Location: Napa County Airport

Current Time: Aug 27, 2016 at 7:38:01 PM

Latest Report: Aug 27, 2016 at 6:54 PM


Visibility: 10 mi

Pressure: 29.93 "Hg

Humidity: 68%

Dew Point: 56 °F

Location of NapaLocation

Past Weather in Napa — Graph

°F

Napa Temperature Yesterday

Maximum temperature yesterday: 71 °F (at 1:54 PM)
Minimum temperature yesterday: 59 °F (at 1:54 AM)
Average temperature yesterday: 64 °F

High & Low Weather Summary for the Past Weeks

 TemperatureHumidityPressure
High82 °F (Aug 13, 3:54 PM)97% (Aug 13, 5:54 AM)30.08 "Hg (Aug 13, 5:54 AM)
Low49 °F (Aug 13, 4:54 AM)41% (Aug 22, 3:54 PM)29.75 "Hg (Aug 17, 6:54 PM)
Average63 °F76%29.90 "Hg
* Reported Aug 12 5:54 PM — Aug 27 5:54 PM, Napa, Weather by CustomWeather, © 2016

Note: Actual official high and low records may vary slightly from our data, if they occured in-between our weather recording intervals... More about our weather records

Advertising

Napa Weather History for the Previous 24 Hours

Scroll right to see more
 ConditionsComfort  
Time TempWeatherWind HumidityBarometerVisibility
5:54 PM
Sat, Aug 27
69 °FSunny.20 mph63%29.93 "Hg10 mi
4:54 PM71 °FSunny.21 mph57%29.93 "Hg10 mi
3:54 PM72 °FSunny.22 mph57%29.93 "Hg10 mi
2:54 PM72 °FSunny.18 mph57%29.94 "Hg10 mi
1:54 PM72 °FSunny.20 mph57%29.96 "Hg10 mi
12:54 PM71 °FSunny.17 mph57%29.97 "Hg10 mi
11:54 AM69 °FSunny.13 mph61%29.98 "Hg10 mi
10:54 AM69 °FPartly sunny.13 mph61%29.98 "Hg10 mi
9:54 AM65 °FOvercast.9 mph68%29.98 "Hg10 mi
8:54 AM63 °FPartly sunny.7 mph75%29.96 "Hg10 mi
7:54 AM62 °FPartly sunny.8 mph78%29.96 "Hg10 mi
6:54 AM61 °FOvercast.5 mph78%29.95 "Hg10 mi
5:54 AM61 °FOvercast.7 mph78%29.94 "Hg10 mi
4:54 AM61 °FOvercast.12 mph78%29.94 "Hg10 mi
3:54 AM61 °FOvercast.9 mph81%29.94 "Hg10 mi
2:54 AM62 °FOvercast.12 mph78%29.94 "Hg10 mi
1:54 AM62 °FOvercast.10 mph78%29.94 "Hg10 mi
12:54 AM62 °FOvercast.10 mph78%29.94 "Hg10 mi
11:54 PM
Fri, Aug 26
62 °FOvercast.12 mph78%29.94 "Hg10 mi
10:54 PM61 °FPassing clouds.12 mph81%29.94 "Hg10 mi
9:54 PM61 °FClear.13 mph81%29.93 "Hg10 mi
8:54 PM62 °FClear.15 mph78%29.91 "Hg10 mi
7:54 PM64 °FSunny.12 mph73%29.89 "Hg10 mi
Weather by CustomWeather, © 2016

See weather overviewHow to use our weather pages